Location: 22
(39.7117°N, 89.5929°W)
Time: 10:17:37
(UTC-05:00)

Transit 2A - Pass Details

Date: 04 August 2024
Orbit: 590 x 961 km, 66.7° (Epoch: 13 September)

Event Time Altitude Azimuth Distance (km) Brightness Sun altitude
Rises 07:09:17 0° 257° (WSW) 3,274 8.6 11.7°
Reaches altitude 10° 07:12:23 10° 275° (W) 2,421 8.1 12.3°
Maximum altitude 07:16:13 19° 319° (NW) 1,970 7.9 13.0°
Drops below altitude 10° 07:20:19 10° 2° (N) 2,587 9.0 13.8°
Sets 07:23:47 0° 20° (NNE) 3,585 9.9 14.4°
